sat.trackr.live / text

‹ back to catalog

STARLINK-1407

NORAD 45703 · 2020-035AY

PAYLOAD ACTIVE UNKNOWN

§ Identity

Operator
Country
US
Launch date
2020-06-04
Launch site
AFETR
Launch vehicle
Mass (kg)
RCS (m²)

Purposes: comms

External: N2YO · Heavens-Above · Gunter

§ Orbital elements

Epoch: 2026-09-09T06:00:02.000160Z

Period
90.23 min
Inclination
53.0176°
Eccentricity
0.0000612
Mean motion
15.95904787 rev/d
Perigee alt
285.4 km
Apogee alt
286.2 km
Semi-major
6,663.9 km
B*
5.7396e-4
RAAN
120.2895°
Arg perigee
120.3684°
Mean anomaly
63.5622°
Rev number
608

§ Raw data

STARLINK-14071 45703U 20035AY  26252.25002315  .00236743  33228-4  57396-3 0  99942 45703  53.0176 120.2895 0000612 120.3684  63.5622 15.95904787  6086

JSON: /api/v1/satellites/45703 · /tle

For live sub-satellite position, see the globe view (requires WebGL).

§ Visibility from observer

Set your observer location to see the next 7 days of passes ≥ 10°. The values pass through the URL so the page stays shareable.

No JS? Fill the form by hand. The geolocation button needs JavaScript.